"Time","Temp","Dewpoint","Humidity","Pressure","Direction","Speed","Gust","Precip","PrecipRate"
"00:04:57","74.6","70.5","87","29.97","332","0.1","1.2","0.00","0.00"
"00:09:58","74.5","70.4","87","29.97","332","0.1","1.2","0.00","0.00"
"00:14:56","74.4","70.3","87","29.97","332","0.1","1.2","0.00","0.00"
"00:19:58","74.4","70.3","87","29.96","332","0.4","2.3","0.00","0.00"
"00:24:59","74.4","70.3","87","29.96","332","0.1","1.2","0.00","0.00"
"00:29:57","74.5","70.4","87","29.96","332","0","1.2","0.00","0.00"
"00:34:59","74.5","70.4","87","29.96","332","0","0","0.00","0.00"
"00:39:58","74.5","70.4","87.1","29.96","332","1","2.3","0.00","0.00"
"00:44:56","74.4","70.6","88","29.96","332","0","0","0.00","0.00"
"00:49:58","74.2","70.4","88","29.96","332","0","0","0.00","0.00"
"00:54:56","74.2","70.2","87.4","29.96","332","0.2","3.5","0.00","0.00"
"00:59:58","74.2","70.4","88","29.96","332","0.2","1.2","0.00","0.00"
"01:04:59","74.2","70.4","88","29.96","332","0","1.2","0.00","0.00"
"01:09:57","74.2","70.4","88","29.96","332","0.4","2.3","0.00","0.00"
"01:14:56","74.1","70.3","88","29.97","332","0.4","2.3","0.00","0.00"
"01:19:57","74","70.2","88","29.97","331","1","3.5","0.00","0.00"
"01:24:59","74","70.2","88","29.97","331","0.2","2.3","0.00","0.00"
"01:29:57","73.9","70.1","88","29.97","331","0.3","1.2","0.00","0.00"
"01:34:59","73.7","70.2","88.7","29.97","331","0","0","0.00","0.00"
"01:39:58","73.6","70.2","89","29.97","331","0","0","0.00","0.00"
"01:44:59","73.5","70.1","89","29.97","331","0","0","0.00","0.00"
"01:49:57","73.4","70","89","29.96","331","0.1","3","0.00","0.00"
"01:54:59","73.4","70","89","29.96","331","1.1","3.5","0.00","0.00"
"01:59:57","73.4","70","89","29.97","331","0.8","3.5","0.00","0.00"
"02:04:58","73.4","70","89","29.97","331","0.4","1.2","0.00","0.00"
"02:09:56","73.3","69.9","89","29.97","331","0.8","2.3","0.00","0.00"
"02:14:59","73.3","69.9","89","29.98","331","0.7","2.3","0.00","0.00"
"02:19:56","73.3","69.9","89","29.98","331","0","0","0.00","0.00"
"02:24:58","73.2","69.8","89","29.98","331","0","0","0.00","0.00"
"02:29:56","73.2","69.8","89.2","29.98","331","0.1","1.2","0.00","0.00"
"02:34:58","73.1","69.7","89","29.98","331","0.8","3.5","0.00","0.00"
"02:39:58","73.2","69.8","89","29.98","331","0.4","2.3","0.00","0.00"
"02:44:59","73.3","69.9","89","29.98","331","0","0","0.00","0.00"
"02:49:57","73.3","69.9","89","29.98","331","0","0","0.00","0.00"
"02:54:59","73.3","69.9","89","29.98","331","1.1","3.5","0.00","0.00"
"02:59:56","73.3","69.9","89","29.98","331","0.1","2.3","0.00","0.00"
"03:04:58","73.3","69.9","89","29.97","331","0","0","0.00","0.00"
"03:09:56","73.3","69.9","89","29.97","331","0","0","0.00","0.00"
"03:14:59","73.3","69.9","89","29.97","331","0","0","0.00","0.00"
"03:19:57","73.2","70","89.5","29.97","331","0","0","0.00","0.00"
"03:24:59","73.1","70","90","29.97","331","0","0","0.00","0.00"
"03:29:56","73","69.9","90","29.97","331","0","0","0.00","0.00"
"03:34:58","73","70","90.3","29.97","331","0","0","0.00","0.00"
"03:39:57","72.8","70","91","29.97","331","0","0","0.00","0.00"
"03:44:59","72.8","70","91","29.98","331","0","0","0.00","0.00"
"03:49:56","72.7","69.9","91","29.98","331","0","0","0.00","0.00"
"03:54:59","72.6","69.8","91","29.98","331","0","0","0.00","0.00"
"03:59:57","72.5","69.7","91","29.98","331","0","0","0.00","0.00"
"04:04:58","72.4","69.9","92","29.98","331","0","0","0.00","0.00"
"04:09:56","72.2","69.7","92","29.98","331","0","0","0.00","0.00"
"04:14:59","72.1","69.6","92","29.98","331","0","0","0.00","0.00"
"04:19:56","72.1","69.7","92.4","29.98","331","0","0","0.00","0.00"
"04:24:58","72","69.6","92.3","29.98","331","0","0","0.00","0.00"
"04:29:56","71.9","69.8","93","29.98","331","0","0","0.00","0.00"
"04:34:58","71.9","69.8","93","29.98","331","0","0","0.00","0.00"
"04:39:57","71.9","69.8","93","29.98","331","0","0","0.00","0.00"
"04:44:58","71.8","69.7","93","29.98","331","0","0","0.00","0.00"
"04:49:56","71.7","69.6","93","29.98","331","0","0","0.00","0.00"
"04:54:58","71.7","69.6","93","29.98","331","0","0","0.00","0.00"
"04:59:56","71.7","69.8","93.9","29.99","331","0","0","0.00","0.00"
"05:04:57","71.7","69.9","94","29.99","331","0","0","0.00","0.00"
"05:09:59","71.6","69.8","94","29.99","331","0","0","0.00","0.00"
"05:14:57","71.5","69.7","94","29.99","331","0","0","0.00","0.00"
"05:19:59","71.4","69.6","94","29.98","331","0","0","0.00","0.00"
"05:24:57","71.3","69.5","94","29.98","331","0","0","0.00","0.00"
"05:29:59","71.2","69.4","94","29.99","331","0","0","0.00","0.00"
"05:34:57","71.2","69.4","94","29.99","331","0","0","0.00","0.00"
"05:39:56","71.3","69.5","94","29.99","331","0","0","0.00","0.00"
"05:44:58","71.3","69.5","94","30.00","321","1.3","5","0.00","0.00"
"05:49:56","71.3","69.5","94","30.00","314","0.2","2.3","0.00","0.00"
"05:54:58","71.4","69.6","94","30.00","313","0.5","3.5","0.00","0.00"
"05:59:56","71.5","69.6","93.8","30.01","313","0.2","2.3","0.00","0.00"
"06:04:57","71.5","69.4","93","30.01","313","0","0","0.00","0.00"
"06:09:56","71.5","69.3","92.8","30.01","31","0","0","0.00","0.00"
"06:14:59","71.5","69","91.7","30.01","360","0.4","2.3","0.00","0.00"
"06:19:57","71.5","68.4","90","30.01","360","0.3","2.3","0.00","0.00"
"06:24:59","71.5","67.2","86.3","30.01","52","0.8","3.5","0.00","0.00"
"06:29:56","71.6","66.4","83.5","30.01","339","1.1","5","0.00","0.00"
"06:34:58","71.8","65.8","81.3","30.01","335","0.9","4","0.00","0.00"
"06:39:57","72.1","65.8","80.6","30.01","338","0.8","3.5","0.00","0.00"
"06:44:58","72.3","66","80.6","30.01","338","0.1","1.2","0.00","0.00"
"06:49:59","72.3","66","80.6","30.01","338","0.3","2.3","0.00","0.00"
"06:54:57","72.4","65.9","80","30.01","338","0.2","2.3","0.00","0.00"
"06:59:58","72.4","66","80.2","30.03","331","0.9","3.5","0.00","0.00"
"07:04:59","72.4","66","80.2","30.03","332","0.1","1.2","0.00","0.00"
"07:09:57","72.4","65.8","79.9","30.03","337","0.5","3.5","0.00","0.00"
"07:14:58","72.4","66.1","80.6","30.03","338","0.4","2.3","0.00","0.00"
"07:19:56","72.3","66.1","81","30.03","330","0.3","2.3","0.00","0.00"
"07:24:57","72.3","66.1","81","30.03","161","0.9","3.5","0.00","0.00"
"07:29:58","72.2","66.3","81.8","30.04","161","0.1","1.2","0.00","0.00"
"07:34:56","72.2","66.4","82","30.04","161","0","0","0.00","0.00"
"07:39:59","72.1","66.5","82.4","30.04","135","0.2","2.3","0.00","0.00"
"07:44:56","72.1","66.5","82.6","30.04","131","0.5","3","0.00","0.00"
"07:49:57","72.1","66.6","83","30.04","130","0","0","0.00","0.00"
"07:54:59","72.2","66.8","83.3","30.04","70","0.3","3.5","0.00","0.00"
"07:59:57","72.2","66.9","83.5","30.04","70","0.1","1.2","0.00","0.00"
"08:04:58","72.2","66.7","83","30.04","70","0.1","1.2","0.00","0.00"
"08:09:56","72.3","67","83.5","30.04","60","0.3","3.5","0.00","0.00"
"08:14:58","72.4","66.9","83","30.05","51","0.2","3.5","0.00","0.00"
"08:19:59","72.5","67.3","83.9","30.05","238","0.2","3.5","0.00","0.00"
"08:24:57","72.5","67.6","84.4","30.05","238","0.1","2.3","0.00","0.00"
"08:29:58","72.6","67.5","84","30.06","242","0.9","4","0.00","0.00"
"08:34:56","72.7","67.3","83.2","30.06","343","2.3","7","0.00","0.00"
"08:39:59","72.8","67.3","82.9","30.06","298","1.4","5","0.00","0.00"
"08:44:56","73","67.5","83","30.06","320","0.7","4.6","0.00","0.00"
"08:49:58","73.1","67.6","82.9","30.05","354","0.9","5","0.00","0.00"
"08:54:59","73.3","67.5","82","30.05","352","2.1","5","0.00","0.00"
"08:59:57","73.4","67.4","81.6","30.06","355","1","3.5","0.00","0.00"
"09:04:58","73.5","67.5","81.5","30.06","2","1.3","4","0.00","0.00"
"09:09:56","73.6","67.4","81","30.06","337","2","6","0.00","0.00"
"09:14:59","73.6","67.4","80.8","30.06","344","1.8","4","0.00","0.00"
"09:19:56","73.8","67.6","81.2","30.06","348","1.5","6","0.00","0.00"
"09:24:57","73.9","67.7","81","30.06","349","0.8","4","0.00","0.00"
"09:29:59","74.1","67.9","81.2","30.06","352","1.2","5","0.00","0.00"
"09:34:56","74.1","67.5","80","30.06","351","1.5","5","0.00","0.00"
"09:39:59","74.3","67.9","80.5","30.06","348","1.2","5","0.00","0.00"
"09:44:56","74.4","67.8","79.8","30.07","335","1.9","4.6","0.00","0.00"
"09:49:58","74.5","67.7","79.2","30.07","331","2.5","5","0.00","0.00"
"09:54:59","74.6","67.6","78.7","30.07","336","2.2","6","0.00","0.00"
"09:59:57","74.8","67.7","78.7","30.08","350","2.2","7","0.00","0.00"
"10:04:57","75","68.1","79.1","30.08","343","2.1","6.9","0.00","0.00"
"10:09:59","75.3","68.1","78.3","30.08","317","1.6","6","0.00","0.00"
"10:14:58","75.4","67.7","77","30.08","352","2.6","7","0.00","0.00"
"10:19:59","75.4","67.9","77.5","30.08","321","2","4","0.00","0.00"
"10:24:57","75.5","68","77.7","30.08","284","1.8","4","0.00","0.00"
"10:29:59","75.6","68.1","77.6","30.09","317","1.3","4","0.00","0.00"
"10:34:57","75.7","68.3","77.9","30.09","313","1.2","3.5","0.00","0.00"
"10:39:59","75.8","68.1","77","30.09","334","2.5","6","0.00","0.00"
"10:44:57","75.9","68.3","77.3","30.09","175","1","4","0.00","0.00"
"10:49:58","76.1","68.4","77.3","30.09","176","1.2","3.5","0.00","0.00"
"10:54:56","76.3","68.4","76.5","30.09","195","1.5","4","0.00","0.00"
"10:59:57","76.5","68.1","75.4","30.10","317","2.6","7","0.00","0.00"
"11:04:58","76.4","67.8","74.6","30.10","346","3.2","7","0.00","0.00"
"11:09:56","76.4","67.5","74.1","30.10","344","2.6","6","0.00","0.00"
"11:14:59","76.4","67.4","73.7","30.10","349","2","4","0.00","0.00"
"11:19:56","76.6","68.1","75","30.10","348","1.8","4","0.00","0.00"
"11:24:58","76.9","67.8","73.7","30.10","337","1.9","4","0.00","0.00"
"11:29:59","77","67.9","73.4","30.10","353","2.7","6","0.00","0.00"
"11:34:57","77.1","67.9","73.4","30.09","334","1.8","4","0.00","0.00"
"11:39:59","77.2","67.5","71.9","30.09","333","2.8","9.2","0.00","0.00"
"11:44:57","77.3","67.3","71.3","30.09","349","2.8","6.9","0.00","0.00"
"11:49:58","77.4","67.1","70.7","30.09","335","3.1","7","0.00","0.00"
"11:54:56","77.5","66.9","70.2","30.09","348","4.2","9.2","0.00","0.00"
"11:59:58","77.5","67.3","70.8","30.10","349","2.5","5","0.00","0.00"
"12:04:59","77.7","67.4","70.9","30.10","345","2","5","0.00","0.00"
"12:09:57","77.8","67.2","70.1","30.10","333","2.4","5","0.00","0.00"
"12:14:56","77.9","67.1","69.7","30.10","320","2.3","5","0.00","0.00"
"12:19:57","77.9","67.3","69.9","30.10","290","2","6","0.00","0.00"
"12:24:59","78","67.2","69.6","30.10","310","2.2","5.8","0.00","0.00"
"12:29:56","78.1","67.8","70.7","30.10","319","1","4.6","0.00","0.00"
"12:34:58","78.2","67.5","69.7","30.09","325","2.3","5","0.00","0.00"
"12:39:56","78.2","67.5","69.9","30.09","328","2.3","5","0.00","0.00"
"12:44:58","78.2","67.7","70.2","30.09","328","2.4","7","0.00","0.00"
"12:49:59","78.3","68.2","71","30.09","325","1.3","4","0.00","0.00"
"12:54:57","78.4","68.3","71.2","30.09","326","1.5","5","0.00","0.00"
"12:59:59","78.5","67.6","69.1","30.09","341","1.3","4.6","0.00","0.00"
"13:04:56","78.8","68.1","69.9","30.09","331","0.8","4","0.00","0.00"
"13:09:59","79.2","68.6","70.1","30.09","264","2","4","0.00","0.00"
"13:14:56","79.8","69.7","71.3","30.09","298","2.7","6","0.00","0.00"
"13:19:59","80.4","69.4","69.2","30.09","316","2","4","0.00","0.00"
"13:24:57","80.5","69.1","68.4","30.09","295","1.9","5","0.00","0.00"
"13:29:56","80.7","69.8","69.6","30.09","263","2.2","6","0.00","0.00"
"13:34:59","81.1","69.7","68.4","30.08","250","1.9","4","0.00","0.00"
"13:39:59","81","68.1","64.8","30.08","312","3.3","10.4","0.00","0.00"
"13:44:57","81.2","67.3","62.8","30.08","339","2.9","7","0.00","0.00"
"13:49:56","81.8","68.5","64","30.07","334","1.5","5","0.00","0.00"
"13:54:59","82.5","67.7","61.1","30.07","330","1.3","4","0.00","0.00"
"13:59:58","82.9","68.8","62.6","30.07","334","0.9","4","0.00","0.00"
"14:04:56","83.2","68.9","62","30.07","339","2.4","10.4","0.00","0.00"
"14:09:55","83.5","68.2","60.2","30.07","346","2.8","8","0.00","0.00"
"14:14:59","83.3","68.6","61.2","30.07","347","2.5","10.4","0.00","0.00"
"14:19:58","83.3","68","60.2","30.07","333","2.5","6","0.00","0.00"
"14:24:57","83.4","69","62","30.07","307","2","5.8","0.00","0.00"
"14:29:59","83.5","68.2","60","30.07","315","2.2","6","0.00","0.00"
"14:34:58","83.4","67.5","58.8","30.06","257","1.7","5.8","0.00","0.00"
"14:39:57","83.5","67","57.7","30.06","322","2.9","7","0.00","0.00"
"14:44:56","83.5","68.1","59.8","30.06","312","2.5","6","0.00","0.00"
"14:49:58","83.8","68.4","59.9","30.06","313","2.1","4","0.00","0.00"
"14:54:57","84","67.9","58.5","30.06","313","2.2","4","0.00","0.00"
"14:59:56","84.4","68","58.1","30.06","342","1.8","4","0.00","0.00"
"15:04:59","84.8","68.4","58","30.06","298","2","4","0.00","0.00"
"15:09:58","85","68.7","58.2","30.06","300","2.1","5","0.00","0.00"
"15:14:57","85.2","68.3","57.1","30.07","274","1.5","5","0.00","0.00"
"15:19:56","85.1","67.6","56","30.07","334","2","5","0.00","0.00"
"15:24:59","85.1","64.9","50.9","30.07","341","3.8","9.2","0.00","0.00"
"15:29:58","85","64.8","50.8","30.07","272","2","5","0.00","0.00"
"15:34:56","85.4","66.5","53.2","30.07","281","2.1","9","0.00","0.00"
"15:39:56","85.8","65.9","51.6","30.07","226","3.2","9.2","0.00","0.00"
"15:44:59","86","66.1","51.5","30.07","324","3.3","7","0.00","0.00"
"15:49:57","86.1","65.6","50.4","30.07","332","3.4","9.2","0.00","0.00"
"15:54:56","86.2","65.7","50.7","30.07","329","3.6","10.4","0.00","0.00"
"15:59:59","86.2","65.8","50.7","30.07","322","2.8","9.2","0.00","0.00"
"16:04:57","86.3","65.6","50.1","30.06","298","2.3","5","0.00","0.00"
"16:09:56","86.4","66","50.7","30.06","336","2","5","0.00","0.00"
"16:14:56","86.5","66.3","51.1","30.06","321","2.9","13","0.00","0.00"
"16:19:58","86.5","66.6","51.7","30.06","325","2.6","12.7","0.00","0.00"
"16:24:57","86.6","66.1","50.6","30.06","270","0.8","3.5","0.00","0.00"
"16:29:56","86.9","66.4","50.7","30.06","311","2.6","11.5","0.00","0.00"
"16:34:59","86.9","66.6","51.2","30.05","319","3.7","12","0.00","0.00"
"16:39:58","86.6","66.3","50.9","30.05","333","2.8","9.2","0.00","0.00"
"16:44:57","86.6","67.4","52.9","30.05","296","2.6","8.1","0.00","0.00"
"16:49:56","86.6","66.1","50.6","30.05","316","2","6","0.00","0.00"
"16:54:58","86.5","65.8","50.2","30.05","322","3.3","7","0.00","0.00"
"16:59:57","86.5","65.8","50.3","30.05","290","3","7","0.00","0.00"
"17:04:59","86.4","66.3","51.3","30.04","231","1.5","3.5","0.00","0.00"
"17:09:58","86.7","67","52","30.04","284","1.7","5","0.00","0.00"
"17:14:58","86.9","65.9","49.8","30.04","343","3.5","10.4","0.00","0.00"
"17:19:57","86.6","65.4","49.4","30.04","331","3.9","12","0.00","0.00"
"17:24:59","86.5","66.4","51.3","30.04","343","2.1","9","0.00","0.00"
"17:29:58","86.5","65.2","49.1","30.04","334","3.8","9.2","0.00","0.00"
"17:34:57","86.3","65.1","49.3","30.04","319","3.7","9.2","0.00","0.00"
"17:39:56","86.2","65.8","50.8","30.04","334","2.9","10.4","0.00","0.00"
"17:44:59","86.3","65.7","50.5","30.04","285","1.8","4","0.00","0.00"
"17:49:58","86.5","66.8","52.1","30.04","309","1.7","5","0.00","0.00"
"17:54:56","86.6","65.7","49.8","30.04","308","2.7","6","0.00","0.00"
"17:59:59","86.5","65.8","50.2","30.04","359","2.1","5","0.00","0.00"
"18:04:59","86.5","66.6","51.7","30.04","19","1.2","6","0.00","0.00"
"18:09:58","86.3","65.5","50","30.04","308","3","6","0.00","0.00"
"18:14:57","86","65.1","49.8","30.04","346","2.4","9.2","0.00","0.00"
"18:19:57","85.7","65.3","50.7","30.04","324","1.7","6","0.00","0.00"
"18:24:56","85.5","66","52.3","30.04","352","2","5.8","0.00","0.00"
"18:29:58","85.3","66.4","53.2","30.04","349","1.5","5","0.00","0.00"
"18:34:57","85.2","65.4","51.7","30.04","350","2.6","6","0.00","0.00"
"18:39:56","85","64.9","51.2","30.04","335","2.4","5.8","0.00","0.00"
"18:44:59","84.8","65.1","51.7","30.04","332","2.3","5","0.00","0.00"
"18:49:58","84.7","65.4","52.5","30.04","334","2","5","0.00","0.00"
"18:54:56","84.5","64.8","51.7","30.04","338","1.3","3.5","0.00","0.00"
"18:59:59","84.4","65.2","52.6","30.05","338","1.8","4","0.00","0.00"
"19:04:58","84.2","65.3","53.1","30.05","338","1","4","0.00","0.00"
"19:09:57","84","65.4","53.7","30.05","338","1.2","3.5","0.00","0.00"
"19:14:57","83.9","65.4","53.8","30.05","338","1.5","3.5","0.00","0.00"
"19:19:59","83.8","65.2","53.6","30.04","338","1.2","3.5","0.00","0.00"
"19:24:58","83.6","65.4","54.3","30.04","338","0.8","3","0.00","0.00"
"19:29:57","83.4","65.4","54.6","30.05","338","0.7","3.5","0.00","0.00"
"19:34:56","83.2","65.5","55.2","30.05","334","0.9","3.5","0.00","0.00"
"19:39:56","83","65.2","55.1","30.05","323","0.1","3.5","0.00","0.00"
"19:44:58","82.8","65.7","56.4","30.05","322","0","0","0.00","0.00"
"19:49:57","82.3","67","59.9","30.05","327","0","0","0.00","0.00"
"19:54:56","81.6","67.4","62.3","30.05","327","0","0","0.00","0.00"
"19:59:59","80.8","67.8","64.6","30.05","327","0","0","0.00","0.00"
"20:04:53","80.1","67.6","65.6","30.05","340","0","0","0.00","0.00"
"20:09:56","79.3","67.4","67","30.05","273","0","1","0.00","0.00"
"20:14:56","78.6","67.8","69.5","30.06","273","0","1.2","0.00","0.00"
"20:19:57","78.1","67.7","70.6","30.06","273","0","0","0.00","0.00"
"20:24:59","77.6","67.4","71","30.06","273","0","0","0.00","0.00"
"20:29:57","77.1","67","71","30.06","273","0","0","0.00","0.00"
"20:34:59","76.7","67.1","72.5","30.06","273","0","0","0.00","0.00"
"20:39:58","76.2","67.4","74.2","30.06","273","0","1","0.00","0.00"
"20:44:56","75.8","67.5","75.4","30.06","273","0.1","1.2","0.00","0.00"
"20:49:58","75.6","67.8","76.7","30.06","271","0.3","1.2","0.00","0.00"
"20:54:56","75.4","68.1","78","30.06","271","0.6","2","0.00","0.00"
"20:59:58","75.1","67.8","78","30.07","271","0.3","1.2","0.00","0.00"
"21:04:59","74.6","67.4","78.1","30.07","271","0","0","0.00","0.00"
"21:09:57","74.3","68","80.6","30.07","271","0","0","0.00","0.00"
"21:14:56","74.2","68","81","30.07","271","0","0","0.00","0.00"
"21:19:57","73.9","68.1","81.9","30.07","271","0","0","0.00","0.00"
"21:24:59","73.6","67.6","81.4","30.07","271","0","0","0.00","0.00"
"21:29:57","73.1","66.9","81","30.08","271","0","0","0.00","0.00"
"21:34:59","72.7","66.6","81.2","30.08","271","0","0","0.00","0.00"
"21:39:58","72.3","66.6","82.3","30.08","271","0","0","0.00","0.00"
"21:44:56","72","66.6","83.1","30.08","271","0","0","0.00","0.00"
"21:49:57","71.8","66.8","84.4","30.08","271","0","0","0.00","0.00"
"21:54:59","71.8","67.4","85.9","30.08","271","0","0","0.00","0.00"
"21:59:57","71.8","67.4","86","30.09","271","0.1","1.2","0.00","0.00"
"22:04:58","71.8","67.4","86","30.09","271","0.2","1.2","0.00","0.00"
"22:09:56","71.5","67.2","86.2","30.09","271","0.3","1.2","0.00","0.00"
"22:14:59","71.4","67.3","87","30.09","271","0.4","2.3","0.00","0.00"
"22:19:57","71.4","67.6","87.8","30.09","271","0.7","2.3","0.00","0.00"
"22:24:59","71.5","67.8","88","30.09","271","0.1","2.3","0.00","0.00"
"22:29:56","71.5","67.6","87.4","30.09","271","0","0","0.00","0.00"
"22:34:59","71.2","67.1","87","30.09","271","0","0","0.00","0.00"
"22:39:58","70.9","67.2","87.9","30.09","271","0","0","0.00","0.00"
"22:44:56","70.7","67","88","30.10","271","0","0","0.00","0.00"
"22:49:58","70.4","66.9","88.7","30.10","271","0","0","0.00","0.00"
"22:54:59","70.2","66.8","89","30.10","271","0","0","0.00","0.00"
"22:59:57","70","66.6","89.1","30.10","271","0","0","0.00","0.00"
"23:04:58","69.8","66.7","90","30.10","271","0","0","0.00","0.00"
"23:09:56","69.7","66.6","90","30.10","271","0","0","0.00","0.00"
"23:14:59","69.6","66.2","89","30.11","271","0","0","0.00","0.00"
"23:19:57","69.5","66.1","89","30.11","271","0","0","0.00","0.00"
"23:24:59","69.5","66.1","89","30.11","271","0","0","0.00","0.00"
"23:29:57","69.4","66","88.9","30.11","271","0","0","0.00","0.00"
"23:34:59","69.3","65.8","88.8","30.11","271","0","0","0.00","0.00"
"23:39:58","69.2","65.9","89.4","30.11","271","0","0","0.00","0.00"
"23:44:56","69","65.9","90","30.12","271","0","0","0.00","0.00"
"23:49:58","68.9","65.7","89.8","30.12","271","0","0","0.00","0.00"
"23:54:59","68.8","65.5","89.5","30.12","271","0","0","0.00","0.00"
"23:59:57","68.7","65.6","90","30.12","271","0","0","0.00","0.00"
